• Preparation (Info)

  • MPEC 2009-M19 : 2009 MU

    The following Minor Planet Electronic Circular may be linked-to from your own Web pages, but must not otherwise be redistributed electronically.

    A form allowing access to any MPEC is at the bottom of this page.


    Read MPEC 2009-M18 Read MPEC 2009-M20


    M.P.E.C. 2009-M19                                Issued 2009 June 22, 11:38 UT
    
         The Minor Planet Electronic Circulars contain information on unusual
             minor planets and routine data on comets.  They are published
       on behalf of Commission 20 of the International Astronomical Union by the
              Minor Planet Center, Smithsonian Astrophysical Observatory,
                              Cambridge, MA 02138, U.S.A.
    
                 Prepared using the Tamkin Foundation Computer Network
    
                                  MPC@CFA.HARVARD.EDU
              URL http://www.cfa.harvard.edu/iau/mpc.html  ISSN 1523-6714
    
                                        2009 MU
    
    Observations:
         K09M00U* C2009 06 19.30659 16 03 30.06 +04 37 32.2          19.2 V EM019703
         K09M00U  C2009 06 19.31145 16 03 28.54 +04 37 52.7          18.9 V EM019703
         K09M00U  C2009 06 19.31625 16 03 26.78 +04 38 09.3          19.2 V EM019703
         K09M00U  C2009 06 19.32112 16 03 25.12 +04 38 29.3          19.6 V EM019703
         K09M00U  C2009 06 19.35050 16 03 15.37 +04 40 25.2          18.6 V EM019G96
         K09M00U  C2009 06 19.35186 16 03 14.94 +04 40 30.2          18.8 V EM019G96
         K09M00U  C2009 06 19.35255 16 03 14.72 +04 40 32.9          18.9 V EM019G96
         K09M00U  C2009 06 19.36067 16 03 12.08 +04 41 05.8          19.2 V EM019703
         K09M00U  C2009 06 19.36141 16 03 11.71 +04 41 10.7          18.8 V EM019703
         K09M00U  C2009 06 19.36285 16 03 11.32 +04 41 13.5          18.7 V EM019703
         K09M00U  C2009 06 19.94849 16 00 16.15 +05 24 36.6          19.1 V EM019B33
         K09M00U  C2009 06 19.95077 16 00 15.19 +05 24 48.0          19.1 V EM019B33
         K09M00U  C2009 06 19.95611 16 00 13.03 +05 25 13.9          18.9 V EM019B33
         K09M00U  C2009 06 21.25571 15 50 04.23 +07 53 12.1          18.1 V EM019703
         K09M00U  C2009 06 21.26142 15 49 59.95 +07 54 03.6          17.9 V EM019703
         K09M00U  C2009 06 21.26288 15 49 58.80 +07 54 17.3          18.0 V EM019703
         K09M00U  C2009 06 21.26433 15 49 57.68 +07 54 30.8          18.1 V EM019703
         K09M00U  C2009 06 21.33679 15 49 02.53 +08 05 42.6          17.7 V EM019703
         K09M00U  C2009 06 21.34000 15 49 00.04 +08 06 13.2          17.9 V EM019703
         K09M00U  C2009 06 21.34318 15 48 57.67 +08 06 43.0          18.3 V EM019703
         K09M00U  C2009 06 21.34391 15 48 57.08 +08 06 50.9          18.6 R EM019854
         K09M00U  C2009 06 21.34632 15 48 55.28 +08 07 13.8          18.5 R EM019854
         K09M00U  C2009 06 21.34639 15 48 55.18 +08 07 13.5          18.1 V EM019703
         K09M00U  C2009 06 21.34884 15 48 53.35 +08 07 38.1          18.2 R EM019854
         K09M00U  C2009 06 21.38564 15 48 25.48 +08 13 27.5          18.2 V EM019G96
         K09M00U  C2009 06 21.38623 15 48 25.05 +08 13 33.1          18.2 V EM019G96
         K09M00U  C2009 06 21.38668 15 48 24.69 +08 13 37.4          18.2 V EM019G96
         K09M00U  C2009 06 21.38724 15 48 24.30 +08 13 43.0          18.2 V EM019G96
         K09M00U .C2009 06 21.59963 15 45 55.70 +08 57 40.7          17.1 R EM019D90
         K09M00U .C2009 06 21.60226 15 45 53.30 +08 58 10.0          17.5 R EM019D90
         K09M00U .C2009 06 21.60490 15 45 50.98 +08 58 39.6          17.3 R EM019D90
         K09M00U  C2009 06 21.92017 15 41 26.63 +09 55 04.5                 EM019J95
         K09M00U  C2009 06 21.92117 15 41 25.59 +09 55 18.7                 EM019J95
         K09M00U  C2009 06 21.92216 15 41 24.49 +09 55 31.6                 EM019J95
         K09M00U  C2009 06 21.92493 15 41 21.54 +09 56 08.5          17.7 R EM019J95
         K09M00U  C2009 06 21.94598 15 40 53.77 +10 01 21.5          18.7 V EM019B28
         K09M00U  C2009 06 21.95027 15 40 49.03 +10 02 20.0          18.3 V EM019B28
         K09M00U  C2009 06 21.95304 15 40 46.04 +10 02 57.7          17.8 V EM019B28
         K09M00U  C2009 06 21.95509 15 40 43.80 +10 03 25.8          18.0 V EM019B28
         K09M00U  C2009 06 21.97782 15 40 18.40 +10 08 24.3                 EM019118
         K09M00U  C2009 06 21.98184 15 40 14.02 +10 09 20.2                 EM019118
         K09M00U  C2009 06 21.98533 15 40 10.20 +10 10 07.9                 EM019118
         K09M00U  C2009 06 21.98919 15 40 05.99 +10 11 02.3                 EM019118
         K09M00U  C2009 06 21.99137 15 40 03.59 +10 11 33.1                 EM019118
         K09M00U  C2009 06 22.15004 15 37 27.32 +10 52 26.3          18.3 V EM019H55
         K09M00U  C2009 06 22.15378 15 37 22.54 +10 53 25.7          18.6 V EM019H55
         K09M00U  C2009 06 22.15565 15 37 20.14 +10 53 55.3          18.7 V EM019H55
         K09M00U  C2009 06 22.17972 15 37 01.92 +11 00 54.8          17.2 R EM019670
         K09M00U  C2009 06 22.18477 15 36 55.24 +11 02 16.8          17.2 R EM019670
         K09M00U 5C2009 06 22.18711 15 36 51.60 +11 02 54.8          17.8 R EM019673
         K09M00U 5C2009 06 22.19370 15 36 42.91 +11 04 42.9                 EM019673
         K09M00U  C2009 06 22.19460 15 36 28.08 +11 04 49.3          17.9 R EM019850
         K09M00U  C2009 06 22.19606 15 36 40.39 +11 05 22.7          17.4 R EM019670
         K09M00U 5C2009 06 22.19787 15 36 37.36 +11 05 51.8                 EM019673
         K09M00U  C2009 06 22.20111 15 36 19.46 +11 06 34.4          17.9 R EM019850
         K09M00U tC2009 06 22.20238 15 36 28.69 +11 07 24.6          17.9 V EM019291
         K09M00U 5C2009 06 22.20262 15 36 31.05 +11 07 10.6                 EM019673
         K09M00U  C2009 06 22.20761 15 36 10.83 +11 08 20.8          17.9 R EM019850
         K09M00U tC2009 06 22.20777 15 36 21.44 +11 08 53.8          17.8 V EM019291
         K09M00U tC2009 06 22.21175 15 36 16.09 +11 09 59.5          17.6 V EM019291
         K09M00U  C2009 06 22.21417 15 36 02.09 +11 10 08.3          17.5 R EM019850
         K09M00U  C2009 06 22.22069 15 35 53.37 +11 11 54.9          17.4 R EM019850
    
    Observer details:
    118 Modra.  Observers S. Gajdos, J. Vilagi.  0.6-m f/5.5 reflector + CCD.
    291 LPL/Spacewatch II.  Observer J. V. Scotti.  1.8-m f/2.7 reflector + CCD.
    670 Camarillo.  Observer J. E. Rogers.
    673 Table Mountain Observatory, Wrightwood.  Observer J. Young.  0.61-m f/16
        Cassegrain + CCD.
    703 Catalina Sky Survey.  Observer R. E. Hill.  Measurers E. C. Beshore,
        A. Boattini, G. J. Garradd, A. R. Gibbs, A. D. Grauer, R. E. Hill,
        R. A. Kowalski, S. M. Larson, R. H. McNaught.  0.68-m Schmidt + CCD.
    850 Cordell-Lorenz Observatory, Sewanee.  Observers D. T. Durig, P. Kharel.
        0.30-m f/2.8 Schmidt-Cassegrain + 765x510 CCD.
    854 Sabino Canyon Observatory, Tucson.  Observer J. E. McGaha.  0.36-m f/10.0
        Schmidt-Cassegrain + CCD.
    B28 Mandi Observatory, Pagnacco.  Observer p. corelli.  0.45-m f//4.5
        reflector + CCD.
    B33 Libbiano Observatory, Peccioli.  Observers P. Bacci, R. Emilio,
        A. Domenico.  Measurer P. Bacci.  0.5-m f/10 Ritchey-Chretien + CCD.
    D90 RAS Observatory, Moorook.  Observers C. Jacques, E. Pimentel.  Measurer
        C. Jacques.  0.25-m f/6.0 reflector + CCD.
    G96 Mt. Lemmon Survey.  Observer A. Boattini.  Measurers E. C. Beshore,
        A. Boattini, G. J. Garradd, A. R. Gibbs, A. D. Grauer, R. E. Hill,
        R. A. Kowalski, S. M. Larson, R. H. McNaught.  1.5-m reflector + CCD.
    H55 Astronomical Research Observatory, Charleston.  Observer R. Holmes.
        Measurer H. Devore.  0.61-m f/4.5 astrograph + CCD.
    J95 Great Shefford.  Observer P. Birtwhistle.  0.40-m f/6.0 Schmidt-Cassegrain
        + CCD.
    
    Orbital elements:
    2009 MU                                                  Earth MOID = 0.0042 AU
    Epoch 2009 June 18.0 TT = JDT 2455000.5                 MPC
    M 348.32897              (2000.0)            P               Q
    n   0.28699625     Peri.  224.50383     +0.74782892     +0.65173090
    a   2.2762427      Node    94.38850     -0.56824891     +0.72688481
    e   0.6060696      Incl.    7.28807     -0.34328571     +0.21653017
    P   3.43           H   24.5           G   0.15           U   6
    Residuals in seconds of arc
    090619 703  1.0-  0.1-    090621 854  0.2+  0.2+    090621 118  0.0   0.3-
    090619 703  0.9+  1.3+    090621 703  0.4-  0.0     090621 118  0.2-  0.1+
    090619 703  1.1-  0.9-    090621 854  0.0   0.7+    090622 H55  0.1-  0.1-
    090619 703  1.3-  0.1-    090621 G96  0.2-  0.1-    090622 H55  0.1+  0.1+
    090619 G96  0.0   0.0     090621 G96  0.1+  0.2-    090622 H55  0.2+  0.0
    090619 G96  0.4+  0.4-    090621 G96  0.3-  0.2-    090622 670  0.6+  0.0
    090619 G96  0.5+  0.5-    090621 G96  0.2+  0.0     090622 670  0.4-  0.6-
    090619 703  1.4+  0.2+    090621 D90  0.5-  0.3-    090622 673  0.1-  0.2-
    090619 703  0.5-  2.1+    090621 D90  1.1-  0.2-    090622 673  0.2+  0.3-
    090619 703  0.8+  0.8-    090621 D90  0.4-  0.0     090622 850  0.3-  0.0
    090619 B33  0.3-  0.2-    090621 J95  0.1-  0.1-    090622 670  0.4+  0.2-
    090619 B33  0.5-  0.2-    090621 J95  0.4+  0.6+    090622 673  0.0   0.0
    090619 B33  0.3+  0.9-    090621 J95  0.2-  0.1+    090622 850  0.2-  0.6-
    090621 703  0.3-  0.5+    090621 J95  0.1+  0.6-    090622 291  0.5-  0.1+
    090621 703  0.3+  0.2-    090621 B28  0.6+  0.0     090622 673  0.3+  0.3+
    090621 703  0.3-  0.1+    090621 B28  0.3-  0.0     090622 850  0.0   0.1-
    090621 703  0.6-  0.4+    090621 B28  0.2+  0.2-    090622 291  0.4-  0.3+
    090621 703  0.2+  0.4-    090621 B28  0.2+  0.2-    090622 291  0.1-  0.1+
    090621 703  0.5-  0.0     090621 118  0.0   0.2-    090622 850  0.0   0.1+
    090621 703  0.3+  0.2-    090621 118  0.1+  0.1-    090622 850  0.1-  0.3-
    090621 854  0.3-  0.1+    090621 118  0.1-  0.9-
    
    Ephemeris:
    2009 MU                  a,e,i = 2.28, 0.61, 7                   q = 0.8967
    Date    TT    R. A. (2000) Decl.     Delta      r     Elong.  Phase     V
    2009 06 18    16 08.36   +03 28.4    0.0507   1.058   144.1    34.3    19.6
    2009 06 19    16 04.90   +04 19.9    0.0432   1.051   142.2    36.3    19.3
    2009 06 20    16 00.04   +05 31.4    0.0358   1.044   139.8    38.9    18.9
    2009 06 21    15 52.69   +07 18.7    0.0284   1.037   136.5    42.4    18.5
    2009 06 22    15 40.16   +10 18.0    0.0211   1.030   131.5    47.6    18.0
    2009 06 23    15 14.13   +16 12.8    0.0141   1.024   122.1    57.2    17.4
    2009 06 24    13 53.30   +30 56.6    0.00793  1.018    97.8    81.8    16.9
    2009 06 25    08 37.45   +41 34.7    0.00635  1.011    34.7   145.1    21.1
    2009 06 26    06 00.61   +22 19.6    0.0114   1.005     4.4   175.5
    2009 06 27    05 21.54   +14 08.8    0.0183   0.999    17.3   162.4    27.7
    2009 06 28    05 05.15   +10 22.5    0.0255   0.993    23.5   155.9    26.3
    
    Sonia Keys                   (C) Copyright 2009 MPC           M.P.E.C. 2009-M19
    

    Read MPEC 2009-M18 Read MPEC 2009-M20


    MPEC number:

    Enter an MPEC number in one of the following forms:

    • 1997-B01 (the full form)
    • J97B01 (the packed version of the full form)
    • B01 (the abbreviated form)